OSCAR 7 (AO-7) (7530 NORAD) Tracking and Keplerian Element Data

This shows tracking and keplerian element data for the satellite.

Feedback or suggestion? Click here.




ElementValue
Catalog7530
NameOSCAR 7 (AO-7)
Epoch Orbit3279
Epoch Day109.93319079
Epoch Year2019
RAAN78.2216
Inclination101.7382
Eccentricity0.0012532
Argument of Perigee101.7814
Mean Anonmoly316.6705
Mean Motion12.53637723
Decay Rate-4.7E-07
L11 07530U 74089B 19109.93319079 -.00000047 00000-0 -13246-4 0 9997
L22 07530 101.7382 78.2216 0012532 101.7814 316.6705 12.53637723 32798

Live tracking and technical data element details for OSCAR 7 (AO-7) (NORAD 7530). OSCAR 7 (AO-7) can be tracked NOW for your location showing map with azimuth and elevation plus other details from your city location.

Track the satellite on the map from your city or location and see movement details for azimuth, elevation, latitude, longitude, range, height, and movement on the map or in text.







IsCatalogInMostPopularTable: catalog: 7530, numindb: 844
Update: records affected: 1



GetName: 7530 OSCAR 7 (AO-7)

Hit Count: updated at: Sat, 20 Apr 2019 21:11:22 GMT